Location: Silverdale
(47.6506°N, 122.6941°W)
Time: 03:16:39
(UTC+00:00)

Altair - Pass Details

Date: 03 October 2022
Orbit: 1501 x 1682 km, 47.2° (Epoch: 05 December)

Event Time Altitude Azimuth Distance (km) Brightness Sun altitude
Rises 18:33:52 0° 289° (WNW) 4,894 9.8 34.9°
Reaches altitude 10° 18:37:04 10° 286° (WNW) 3,921 9.4 35.1°
Maximum altitude 18:46:49 56° 212° (SSW) 1,936 9.0 35.8°
Drops below altitude 10° 18:56:36 10° 137° (SE) 3,928 10.7 36.3°
Sets 18:59:48 0° 133° (SE) 4,903 10.9 36.5°
